Regional Weather Roundup
Issued by NWS Goodland, KS

Home | Current Version | Previous Version | Graphics & Text | Print | Product List | Glossary On
Versions: 1 2 3 4 5 6 7 8 9 10 11 12 13 14 15 16 17 18 19 20 21 22 23 24 25 26 27 28 29 30 31 32 33 34 35 36 37 38 39 40 41 42 43 44 45 46 47 48 49 50
000
ASUS43 KGLD 010859
RWRGLD

GOODLAND FORECAST AREA HOURLY WEATHER ROUNDUP
NATIONAL WEATHER SERVICE GOODLAND KS
300 AM MDT SUN MAY 01 2016

...OFFICIAL OBSERVATIONS...

CITY           SKY/WX    TMP DP  RH WIND       PRES   REMARKS
GOODLAND KS    CLOUDY    35  32  88 N21G26    30.06R
HILL CITY KS   CLOUDY    41  39  93 NW13      30.00R FOG
IMPERIAL NEB   MIX PCPN  35  33  92 N21G26    30.10R
MCCOOK NEB     MOCLDY    36  33  89 N18       30.03R
AKRON CO       LGT SNOW  32  30  92 N22       30.14S VSB 3/4 WCI  19
BURLINGTON CO  CLOUDY    34  30  85 N22G30    30.09R
LIMON CO       CLOUDY    32  30  92 N29G43    30.13R WCI  18
$$

...UNOFFICIAL OBSERVATIONS...

CITY           SKY/WX    TMP DP  RH WIND       PRES   REMARKS
COLBY KS       CLOUDY    37  37 100 NW17G23   30.06R
GOVE KS          N/A     38  32  79 MISG        N/A
LENORA KS        N/A     39  32  76 MISG        N/A
NORTON KS      CLOUDY    39  36  87 NW14      29.98R
SHARON SPRINGS   N/A     36  33  88 N16G26      N/A
KIT CARSON CO    N/A     35  32  89 MISG        N/A
YUMA CO          N/A     33  31  93 N12         N/A
$$




USA.gov is the U.S. government's official web portal to all federal, state and local government web resources and services.